Latest METARs, TAFs and NOTAMs for SKCL


---------------------------------------------------------------------------
	(OBSERVATIONS)
SKCL 311030Z 18004KT 9000 +DZ BKN015 OVC08019/18 A2998=
SKCL 311000Z 18004KT 9000 +DZ BKN017 OVC080 19/18 A2998=
SKCL 310900Z 00000KT 9000 -DZ SCT017 OVC080 20/18 A2996=
SKCL 310800Z NIL=
---------------------------------------------------------------------------
	(TERMINAL AREA FORECAST)
SKCL 311000Z 3112/0112 04004KT 9999 SCT020 BKN090 TEMPO 3112/3117
    5000 DZRA SCT015
    TEMPO 3119/3122 25012KT 8000 VCSH SCT015CB TEMPO 0102/0107 8000 VCSH
    SCT018
    TX31/3119Z TN18/0111Z=
---------------------------------------------------------------------------
	(NOTAMS)


SKCL A2219/14 SEQUENCED FLG LGT RWY 01 U/S. 04 AUG 14:50 2014
    UNTIL 04 NOV 23:59 2014 ESTIMATED. CREATED: 04 AUG 14:55
    2014

SKCL A2324/14 MOV AREA WO VERTICAL SIGNALLING, EXER CTN. H24,
    15 AUG 21:30 2014 UNTIL 30 NOV 23:59 2014. CREATED: 15 AUG
    22:18 2014

SKCL A3153/14 RWY 01/19 TURNING BAY LTD, ACFT PROHIBITED PARALLEL
    OR ONE SURPASSES THE OTHER ACFT, EXER CTN. H24, 22 OCT 14:15
    2014 UNTIL 31 JAN 23:59 2015. CREATED: 22 OCT 14:17 2014

SKCL A3154/14 APRON, CARGO APRON AND DECONGESTION APRON WIP,
    EXER CTN. H24, 22 OCT 14:25 2014 UNTIL 31 JAN 23:59 2015.
    CREATED: 22 OCT 14:22 2014

SKCL A3155/14 TWY A,B,C,C1,C2,D,E,F,G WIP, EXER CTN. H24, 22
    OCT 14:30 2014 UNTIL 31 JAN 23:59 2015. CREATED: 22 OCT 14:26
    2014

SKCL A3174/14 RWY 01/19 WIP, EXER CTN. 0530-1030, 24 OCT 05:30
    2014 UNTIL 30 DEC 10:30 2014. CREATED: 23 OCT 18:05 2014

SKCL V0133/14 [DOD PROCEDURAL NOTAM] INSTRUMENT APPROACH PROCEDURE
    NOT AUTHORIZED DUE TO HOST UPDATE: ILS RWY 01 AMDT 1, VOR
    RWY 19 ORIG, ANKIN 5A, 5B DEP, BUN 6A DEP, BUN 6C DEP NA
    UFN. 17 OCT 00:44 2014 UNTIL 08 JAN 23:59 2015. CREATED:
    17 OCT 00:47 2014

---------------------------------------------------------------------------